EHI
0 0 0 0 0 0 0 0 0 0 0 0 0 0 0 0 0 0 0 0 0 0 0 0 0 0 0 0 0 0 0 0 0 0 0 0 0 0 0 0 0 0 0 0
0 0 0 0 0 0 0 0 0 0 0 0 0 0 0 0 0 0 0 0 0 0 0 0 0 0 0 0 0 0 0 0 0 0 0 0 0 0 0 0 0 0 0 0
0 0 0 0 0 0 0 0 0 0 0 0 0 0 0 0 0 0 0 0 0 0 0 0 0 0 0 0 0 0 0 0 0 0 0 0 0 0 0 0 0 0 0 0
0 0 0 0 0 0 0 0 0 0 0 0 0 0 0 0 0 0 0 0 0 0 0 0 0 0 0 0 0 0 0 0 0 0 0 0 0 0 0 0 0 0 0 0
0 0 0 0 0 0 0 0 0 0 0 0 0 0 0 0 0 0 0 0 0 0 0 0 0 0 0 0 0 0 0 0 0 0 0 0 0 0 0 0 0 0 0 0
0 0 0 0 0 0 0 0 0 0 0 0 0 0 0 0 0 0 0 0 0 0 0 0 0 0 0 0 0 0 0 0 0 0 0 0 0 0 0 0 0 0 0 0
0 0 0 0 0 0 0 0 0 0 0 0 0 0 0 0 0 0 0 0 0 0 0 0 0 0 0 0 0 0 0 0 0 0 0 0 0 0 0 0 0 0 0 0
0 0 0 0 0 0 0 0 0 0 0 0 0 0 0 0 0 0 0 0 0 0 0 0 0 0 0 0 0 0 0 0 0 0 0 0 0 0 0 0 0 0 0 0
0 0 0 0 0 0 0 0 0 0 0 0 0 0 0 0 0 0 0 0 0 0 0 0 0 0 0 0 0 0 0 0 0 0 0 0 0 0 0 0 0 0 0 0
0 0 0 0 0 0 0 0 0 0 0 0 0 0 0 0 0 0 0 0 0 0 0 0 0 0 0 0 0 0 0 0 0 0 0 0 0 0 0 0 0 0 0 0
0 0 0 0 0 0 0 0 0 0 0 0 0 0 0 0 0 0 0 0 0 0 0 0 0 0 0 0 0 0 0 0 0 0 0 0 0 0 0 0 0 0 0 0
0 0 0 0 0 0 0 0 0 0 0 0 0 0 0 0 0 0 0 0 0 0 0 0 0 0 0 0 0 0 0 0 0 0 0 0 0 0 0 0 0 0 0 0
0 0 0 0 0 0 0 0 0 0 0 0 0 0 0 0 0 0 0 0 0 0 0 0 0 0 0 0 0 0 0 0 0 0 0 0 0 0 0 0 0 0 0 0
0 0 0 0 0 0 0 0 0 0 0 0 0 0 0 0 0 0 0 0 0 0 0 0 0 0 0 0 0 0 0 0 0 0 0 0 0 0 0 0 0 0 0 0
0 0 0 0 0 0 0 0 0 0 0 0 0 0 0 0 0 0 0 0 0 0 0 0 0 0 0 0 0 0 0 0 0 0 0 0 0 0 0 0 0 0 0 0
0 0 0 0 0 0 0 0 0 0 0 0 0 0 0 0 0 0 0 0 0 0 0 0 0 0 0 0 0 0 0 0 0 0 0 0 0 0 0 0 0 0 0 0
0 0 0 0 0 0 0 0 0 0 0 0 0 0 0 0 0 0 0 0 0 0 0 0 0 0 0 0 0 0 0 0 0 0 0 0 0 0 0 0 0 0 0 0
0 0 0 0 0 0 0 0 0 0 0 0 0 0 0 0 0 0 0 0 0 0 0 0 0 0 0 0 0 0 0 0 0 0 0 0 0 0 0 0 0 0 0 0
0 0 0 0 0 0 0 0 0 0 0 0 0 0 0 0 0 0 0 0 0 0 0 0 0 0 0 0 0 0 0 0 0 0 0 0 0 0 0 0 0 0 0 0
0 0 0 0 0 0 0 0 0 0 0 0 0 0 0 0 0 0 0 0 0 0 0 0 0 0 0 0 0 0 0 0 0 0 0 0 0 0 0 0 0 0 0 0
0 0 0 0 0 0 0 0 0 0 0 0 0 0 0 0 0 0 0 0 0 0 0 0 0 0 0 0 0 0 0 0 0 0 0 0 0 0 0 0 0 0 0 0
0 0 0 0 0 0 0 0 0 0 0 0 0 0 0 0 0 0 0 0 0 0 0 0 0 0 0 0 0 0 0 0 0 0 0 0 0 0 0 0 0 0 0 0
0 0 0 0 0 0 0 0 0 0 0 0 0 0 0 0 0 0 0 0 0 0 0 0 0 0 0 0 0 0 0 0 0 0 0 0 0 0 0 0 0 0 0 0
0 0 0 0 0 0 0 0 0 0 0 0 0 0 0 0 0 0 0 0 0 0 0 0 0 0 0 0 0 0 0 0 0 0 0 0 0 0 0 0 0 0 0 0
0 0 0 0 0 0 0 0 0 0 0 0 0 0 0 0 0 0 0 0 0 0 0 0 0 0 0 0 0 0 0 0 0 0 0 0 0 0 0 0 0 0 0 0
0 0 0 0 0 0 0 0 0 0 0 0 0 0 0 0 0 0 0 0 0 0 0 0 0 0 0 0 0 0 0 0 0 0 0 0 0 0 0 0 0 0 0 0
Wind_Speed
9 9 15 18 16 5 7 7 8 8 6 8 12 15 15 10 7 9 9 10 11 15 15 12 14 14 13 14 15 16 15 14 12 9 10 9 9 8 8 8 10 11 10 11
10 18 16 11 11 8 7 8 7 4 4 7 9 16 14 11 10 11 12 12 12 12 10 11 13 13 16 17 17 16 17 16 14 12 10 7 6 5 7 6 9 11 12 11
17 9 12 11 11 14 12 11 10 5 1 3 3 9 12 11 11 12 11 12 11 14 14 13 14 16 17 18 19 17 19 18 16 12 6 4 4 3 5 8 10 12 13 13
14 7 13 14 15 16 17 11 8 6 3 5 5 8 9 10 12 15 15 14 15 15 13 13 14 15 17 20 18 18 18 17 15 14 11 11 12 13 13 10 10 10 12 13
13 12 16 19 18 15 7 9 9 7 6 6 5 8 9 6 13 14 16 16 17 16 15 16 16 18 19 18 17 16 16 16 16 15 16 15 15 12 7 7 8 10 11 12
6 7 12 11 10 11 6 6 4 4 5 13 14 10 11 9 13 9 11 15 16 16 16 16 15 14 15 14 14 14 15 17 17 18 18 18 18 14 10 11 11 11 9 10
10 8 6 7 11 10 10 9 7 9 11 13 10 11 14 10 10 13 13 14 15 15 14 14 13 13 14 14 15 15 16 18 17 18 19 19 19 17 17 14 13 11 10 11
14 14 15 11 13 14 19 15 11 10 8 5 6 14 12 10 11 11 13 12 11 12 12 13 14 13 14 15 15 16 17 18 17 18 19 18 17 14 13 15 12 12 12 12
11 10 8 12 8 13 15 15 8 3 1 4 8 9 10 7 9 10 11 11 11 11 11 10 10 10 11 12 14 16 17 17 16 18 17 16 16 16 15 13 13 10 10 9
5 5 6 8 7 10 10 10 7 8 9 9 7 8 9 8 12 12 12 13 13 11 8 7 7 7 8 9 10 11 13 15 15 15 15 13 15 16 15 12 13 13 12 11
6 5 5 9 17 19 13 15 10 8 7 8 8 10 9 12 14 15 16 14 13 10 8 7 6 5 5 5 6 8 9 10 10 11 12 12 12 13 13 13 14 14 12 12
9 6 7 11 7 9 11 13 14 12 9 7 6 11 5 9 11 12 14 12 8 7 6 5 5 4 3 4 4 6 7 8 9 9 9 10 11 11 12 14 14 13 13 12
11 8 7 5 5 8 11 12 15 11 6 6 8 12 3 4 7 8 9 8 7 6 5 4 4 4 4 4 4 4 5 6 6 6 7 8 8 9 11 11 10 10 11 11
10 7 10 13 9 11 15 16 16 14 12 12 15 15 8 6 7 7 7 8 7 6 6 5 5 5 5 5 5 5 5 4 4 5 5 7 7 8 8 7 7 8 9 10
6 7 8 8 6 8 10 16 18 19 18 16 18 19 18 12 10 9 8 7 6 6 6 7 7 6 5 5 5 5 5 4 4 4 5 6 5 4 4 5 5 5 6 7
6 6 7 9 9 11 11 17 21 23 22 19 16 20 18 11 7 8 8 8 8 8 9 8 8 7 7 7 6 5 5 5 4 5 5 3 2 2 3 3 3 3 4 4
6 6 6 7 5 7 16 21 24 22 23 24 25 28 12 10 14 14 12 10 11 11 10 10 9 8 8 7 7 7 6 4 4 4 4 2 2 2 2 2 2 3 3 3
7 6 4 4 6 14 12 12 16 22 24 23 22 20 16 16 14 11 11 12 12 11 10 9 8 7 6 5 5 4 3 3 3 3 2 2 2 2 1 1 2 2 2 2
9 8 5 5 7 8 8 9 18 21 23 23 24 23 17 9 5 10 12 12 12 11 9 8 6 5 4 3 4 4 3 2 2 2 2 2 2 2 1 1 2 1 1 1
10 8 6 5 7 11 11 7 8 9 17 16 20 23 17 9 11 17 11 10 9 7 5 5 3 3 2 2 3 5 4 3 3 2 2 2 2 2 2 2 1 0 0 1
9 9 11 9 8 10 9 5 11 13 17 11 15 18 14 17 19 11 6 8 8 6 5 4 4 3 2 2 5 5 4 2 1 2 2 2 2 2 1 1 1 1 1 1
11 9 10 8 8 12 6 7 13 10 5 4 8 12 13 14 11 5 5 6 5 4 4 4 5 4 3 3 5 5 3 1 2 3 3 2 2 1 1 2 2 2 1 1
9 9 7 9 9 4 2 4 4 3 3 4 4 5 6 7 7 5 5 5 4 5 4 5 7 6 4 4 4 5 3 2 3 4 3 3 3 2 2 2 2 2 1 1
3 1 4 5 6 4 3 3 4 5 4 4 4 3 2 4 4 3 4 4 4 4 5 5 7 7 5 4 4 4 3 3 4 4 3 3 3 3 3 2 2 2 1 1
3 2 3 5 4 4 4 3 6 7 6 5 5 3 0 3 3 3 4 4 4 5 5 5 6 6 5 4 4 4 3 2 4 5 4 3 3 3 3 3 3 2 2 1
1 2 4 5 2 4 5 6 7 6 6 5 4 3 3 3 4 5 5 5 5 5 5 6 6 6 5 4 4 5 4 2 4 5 4 3 2 2 2 3 3 7 5 6
Wind_Direction
172 188 202 202 204 194 165 177 199 211 203 190 220 238 246 243 239 240 238 232 228 228 227 215 209 205 200 198 198 198 198 196 190 190 192 194 201 199 199 200 198 198 197 194
178 212 207 191 193 201 196 200 212 240 220 203 231 244 247 238 231 230 232 232 231 233 231 217 208 202 202 202 202 201 202 198 197 200 199 197 194 199 204 202 203 202 200 198
203 202 180 179 187 201 213 207 203 212 263 232 250 270 250 247 234 237 235 232 231 227 224 217 209 206 205 205 204 203 204 201 200 195 183 173 176 187 200 208 210 208 204 202
214 198 173 186 196 194 219 206 196 199 200 239 205 263 254 235 238 235 235 234 234 233 226 219 212 208 207 209 206 205 204 202 199 193 191 190 200 208 210 208 209 207 207 207
205 185 184 197 199 186 198 171 192 203 214 245 228 250 263 227 235 235 233 233 235 233 226 222 216 212 210 208 205 205 203 203 198 196 200 202 212 218 212 204 207 210 210 212
208 181 191 199 189 181 148 139 177 204 218 241 221 225 260 214 219 227 231 234 236 234 230 227 223 215 213 208 204 202 201 205 200 200 203 207 213 213 207 207 211 213 213 214
204 205 198 164 164 174 170 163 191 204 215 237 191 213 248 217 212 212 223 232 234 233 227 226 221 214 213 207 204 202 203 207 203 202 206 210 214 213 215 214 215 213 214 216
198 205 195 185 183 185 193 187 194 202 210 236 181 223 247 223 220 221 225 232 237 235 228 225 221 215 213 209 206 204 206 209 204 205 210 212 213 214 219 219 216 215 218 220
195 216 184 193 175 170 186 204 204 181 168 223 228 256 287 244 239 236 236 237 239 239 232 227 223 218 215 211 207 205 207 210 208 208 210 213 213 215 219 218 217 220 221 217
163 210 198 182 163 198 186 173 170 195 195 226 242 233 234 215 218 223 226 230 234 236 233 228 223 220 217 213 210 207 209 212 211 209 211 214 214 216 219 217 218 219 220 215
176 201 202 177 192 191 179 188 189 192 200 203 238 248 219 206 207 213 221 223 224 223 219 220 222 220 217 213 206 205 209 212 213 212 214 215 217 217 217 220 222 222 220 216
180 191 215 213 220 196 191 193 191 202 208 207 230 259 236 215 217 214 219 222 222 215 210 210 210 205 200 203 203 205 207 211 215 213 214 218 220 218 219 223 225 222 221 218
166 186 195 206 219 200 206 198 202 209 199 205 218 254 259 229 235 227 223 223 223 218 211 203 199 202 206 208 208 209 211 215 216 209 212 218 219 219 223 226 225 220 220 220
172 193 204 211 201 187 200 204 200 199 213 222 228 245 255 241 236 236 229 223 217 216 212 210 216 219 217 215 214 215 221 215 207 202 209 220 223 224 227 228 225 222 219 219
183 211 223 240 230 193 207 208 206 212 218 222 233 238 243 231 223 228 227 223 216 219 220 218 219 221 221 225 228 225 226 216 199 199 213 225 225 226 230 233 232 228 223 223
182 208 214 240 232 214 221 215 212 218 221 229 241 247 240 231 217 227 225 215 215 221 223 225 225 222 220 221 224 225 227 219 192 202 222 227 223 227 237 246 247 239 233 229
181 181 195 227 219 213 225 213 212 216 218 219 230 239 235 214 217 219 218 214 218 222 223 221 220 218 218 217 214 216 220 201 186 202 215 211 208 224 242 258 256 252 249 239
181 181 200 206 186 224 232 207 209 220 225 221 229 239 228 221 224 222 216 213 221 223 223 223 221 221 221 218 211 207 188 177 185 198 208 195 186 215 239 255 263 271 280 269
195 186 197 205 217 247 269 213 199 209 230 222 228 237 238 226 232 245 226 216 219 220 218 219 215 210 203 201 191 162 157 157 169 197 204 191 177 194 212 239 262 272 273 277
201 195 196 205 213 227 238 221 194 196 246 229 222 232 231 197 226 243 217 208 217 215 207 201 187 163 161 181 149 141 153 154 186 201 188 164 161 177 199 218 226 243 250 280
186 198 207 210 223 249 251 213 145 188 234 228 218 228 220 213 229 242 188 195 202 198 189 167 144 132 138 131 131 137 138 167 186 136 125 125 134 149 162 153 128 117 104 90
185 191 202 196 211 241 240 170 180 219 244 226 222 225 223 230 235 230 198 190 181 175 166 151 133 115 81 88 122 128 130 120 105 111 112 108 101 101 114 124 117 111 117 114
198 199 196 202 216 236 201 212 260 309 268 261 251 246 225 226 230 220 202 179 165 158 146 128 126 114 84 63 99 121 106 93 107 109 107 101 96 86 89 110 113 100 97 99
241 248 198 229 250 264 287 311 340 335 308 302 296 279 214 205 205 196 170 153 140 126 124 121 121 119 99 64 62 70 74 97 113 113 107 100 100 88 73 73 84 93 95 92
255 261 218 236 268 299 294 335 334 334 339 343 343 337 267 151 145 143 137 130 124 115 107 112 121 119 104 77 60 44 41 90 112 108 100 93 88 94 83 70 60 71 60 64
267 251 236 242 274 268 283 326 335 335 337 335 343 359 16 94 122 118 114 107 105 102 99 101 100 100 91 75 58 30 17 55 107 107 99 92 88 81 79 79 58 51 55 50